Lapse_Rate
5.3 6.5 6.5 6.5 6.5 6.5 6.5 6.5 6.6 6.5 6.5 6.5 6.5 6.5 6.5 6.3 6.3 6.3 6.1 5.8 5.5 5.5 4.9 4.9 5.6 4.6 3.6 2.5 1.9 2.2 2.4 1.8 2.3 2.3 2.8 2.9 2.6 2.4 2.4 2.5 3.5 3.9 3.9 4.0
6.5 6.5 6.5 6.5 6.4 6.5 6.5 6.5 6.5 6.4 6.5 6.5 6.5 6.5 6.5 6.4 6.3 6.3 6.1 4.9 5.0 5.1 4.5 3.7 3.4 3.8 3.7 2.3 2.0 2.3 2.3 1.6 2.3 2.7 2.5 2.9 2.6 2.7 2.7 2.7 2.9 3.3 3.8 4.2
6.5 6.5 6.5 6.5 6.4 6.5 6.5 6.5 6.5 6.5 6.5 6.5 6.5 6.5 6.5 6.4 6.1 6.1 5.7 5.2 4.8 4.3 3.8 3.0 3.0 3.0 3.0 2.1 1.8 1.9 1.8 1.6 2.5 2.3 2.4 2.7 2.8 2.7 2.7 2.4 2.4 2.7 3.4 3.6
6.5 6.5 6.5 6.5 6.5 6.5 6.5 6.5 6.5 6.5 6.5 6.5 6.5 6.5 6.5 6.5 6.5 6.5 6.2 4.7 4.3 3.2 3.6 3.0 2.3 2.4 2.7 2.4 2.2 1.5 1.4 1.8 2.2 2.0 2.8 3.0 2.9 3.1 2.3 2.8 2.6 2.8 2.8 2.8
6.5 6.5 6.5 6.5 6.5 6.5 6.5 6.5 6.5 6.5 6.5 6.5 6.5 6.5 6.5 6.5 6.5 6.5 6.2 4.8 3.1 2.5 3.3 2.7 3.0 2.5 2.5 2.3 2.1 1.7 1.0 1.7 2.3 2.2 2.9 3.0 2.8 2.6 2.3 2.5 2.6 2.4 2.3 2.2
6.5 6.0 6.5 6.5 6.5 6.5 6.5 6.5 6.5 6.5 6.5 6.5 6.5 6.5 6.4 6.5 6.5 6.5 5.9 4.8 2.6 2.0 2.6 2.5 3.1 2.6 2.2 2.4 2.0 1.4 0.7 1.4 1.6 2.0 2.3 2.5 2.8 2.5 2.6 2.6 2.5 2.4 2.1 2.1
6.5 6.5 6.5 6.2 6.5 6.5 6.5 6.5 6.5 6.5 6.5 6.5 6.5 6.5 6.4 6.5 6.5 6.5 6.3 4.2 2.1 1.0 2.6 2.4 2.5 3.0 3.8 3.7 2.6 2.5 1.1 1.3 1.5 2.0 2.3 2.2 2.5 2.3 2.3 2.7 2.5 1.5 1.6 1.8
6.4 6.5 6.5 6.5 6.5 6.5 6.5 6.6 6.5 6.5 6.5 6.5 6.5 6.5 6.5 6.5 5.4 5.1 5.0 3.2 2.2 1.7 2.0 4.0 2.5 2.8 3.0 2.8 3.1 4.0 2.0 1.7 1.8 1.8 1.9 1.4 1.7 2.2 2.4 2.7 2.7 1.3 1.1 2.0
6.5 6.5 6.5 6.5 6.5 6.4 6.5 6.5 6.5 6.5 6.5 6.5 6.5 6.4 6.6 6.5 6.5 5.8 5.5 3.9 4.9 3.4 3.7 3.8 3.7 2.7 3.3 3.8 2.5 2.7 3.1 4.1 2.3 0.6 0.1 1.2 3.3 2.3 2.2 2.3 2.6 2.1 2.0 2.4
6.5 6.5 6.5 6.5 6.3 6.4 6.5 6.5 6.5 6.5 6.5 6.5 6.5 6.5 6.5 6.5 6.5 6.6 6.4 5.7 4.9 4.3 3.1 3.4 2.9 3.1 3.9 4.3 1.8 1.8 1.2 -0.5 1.2 0.4 -0.5 0.7 1.8 1.4 5.1 2.7 3.3 3.5 2.2 2.5
6.5 6.6 6.6 6.5 6.5 6.5 6.5 6.5 6.5 6.5 6.5 6.5 6.5 6.5 6.5 6.5 6.6 6.5 6.3 5.4 4.9 2.6 2.7 3.7 3.7 3.8 3.2 1.9 0.9 0.5 0.6 0.7 1.7 0.1 1.0 -0.8 -0.6 0.7 2.3 4.7 2.9 3.1 2.5 2.9
6.5 6.5 6.5 6.5 6.5 6.5 6.5 6.5 6.5 6.5 6.5 6.5 6.5 6.5 6.5 6.5 6.3 6.1 5.0 4.4 3.9 3.7 4.3 4.4 4.1 4.4 3.6 2.6 2.6 1.2 0.6 0.6 -0.1 -1.1 -0.7 -1.6 -1.7 -0.7 2.7 4.4 3.3 2.4 3.0 2.7
6.5 6.5 6.5 6.4 6.5 6.5 6.5 6.5 6.5 6.5 6.5 6.5 6.5 6.5 6.5 6.3 6.1 5.2 4.8 3.7 2.6 3.5 5.1 3.7 3.6 3.6 3.2 2.0 1.2 1.9 2.4 1.9 1.4 0.4 -0.2 -0.7 0.8 3.4 3.1 4.4 3.4 2.8 2.4 2.2
3.8 6.5 6.5 6.5 6.5 6.6 6.5 6.5 6.5 6.4 6.5 6.5 6.5 6.5 6.5 6.5 6.4 5.3 3.5 3.2 3.3 2.3 3.3 3.2 1.9 2.6 4.0 3.2 2.9 2.1 1.7 3.2 1.6 0.6 -0.0 1.5 2.1 3.4 2.9 4.2 2.7 2.3 2.9 2.8
6.5 6.5 6.5 6.5 6.5 6.6 6.5 6.5 6.5 6.5 6.5 6.5 6.4 6.5 6.5 6.5 6.5 5.2 3.5 3.7 3.7 3.5 4.4 3.7 2.4 2.7 3.7 3.9 3.3 4.7 3.0 2.0 1.9 0.1 0.9 1.1 2.8 3.4 3.5 3.4 2.4 3.3 2.5 2.8
6.5 6.5 6.5 6.5 6.5 6.5 6.5 6.5 6.5 6.5 6.5 6.5 6.5 6.5 6.5 5.4 4.1 5.1 4.2 4.1 3.9 3.7 3.4 3.7 3.7 3.7 3.4 4.2 3.6 2.6 2.3 2.1 2.3 2.4 2.5 2.6 2.4 3.3 3.5 3.2 3.1 2.9 2.8 3.1
6.5 6.5 6.5 6.5 6.4 6.5 6.4 6.5 6.5 6.5 6.5 6.5 6.5 6.6 6.5 6.4 6.4 4.9 4.1 3.5 4.0 4.4 3.6 3.1 3.3 3.5 3.1 2.7 2.1 1.4 1.0 0.6 0.5 1.2 2.0 2.2 2.3 1.9 1.4 1.3 1.3 1.9 2.4 2.9
6.5 6.5 6.5 6.5 6.4 6.5 6.5 6.5 6.5 6.5 6.5 6.5 6.5 6.5 6.3 6.0 5.0 4.1 3.7 3.0 4.7 4.7 2.4 1.2 1.3 0.9 0.9 1.1 1.1 1.2 1.2 0.6 0.6 0.6 0.9 1.2 1.5 1.4 1.3 1.5 1.7 2.2 2.5 2.7
6.5 6.5 6.5 6.5 6.5 6.4 6.6 6.5 6.5 6.5 6.5 6.5 6.5 6.5 5.9 5.0 5.0 5.5 4.2 4.2 3.4 1.4 0.7 1.0 0.8 0.1 0.2 0.5 0.9 1.1 1.1 1.4 1.7 1.5 1.2 0.7 -0.0 0.2 0.4 0.4 0.7 1.5 1.4 1.6
6.5 6.5 6.5 6.6 6.5 6.5 6.5 6.5 5.7 6.2 6.5 6.3 5.8 6.3 6.2 5.2 6.4 6.5 4.0 3.1 2.5 1.8 1.5 0.9 0.9 0.7 0.3 0.4 1.2 1.1 0.9 0.8 -0.0 -0.2 -0.1 -0.4 -0.4 -0.2 0.1 0.4 0.7 1.2 1.4 1.7
6.5 6.5 6.5 6.5 6.5 6.5 6.5 6.3 4.9 6.5 6.5 5.5 4.4 4.4 5.0 6.4 4.4 3.3 3.5 3.1 2.6 1.8 1.1 0.7 0.9 0.8 0.4 0.6 0.6 0.1 -0.0 -0.2 -0.2 -0.0 -0.2 -0.4 -0.4 0.4 0.8 0.7 1.2 1.2 1.2 1.4
6.5 6.5 6.5 6.5 6.5 6.5 5.9 6.2 6.6 5.4 3.2 3.9 3.2 2.7 2.3 2.3 4.1 3.9 3.0 2.5 2.4 2.0 2.0 1.4 0.1 -0.5 -0.4 -0.1 0.4 0.2 0.4 0.3 0.6 1.2 1.6 1.7 1.6 2.3 2.9 1.7 1.8 1.7 1.8 2.0
6.5 6.5 6.5 6.5 6.5 5.7 4.0 5.2 2.4 0.4 0.6 2.3 1.2 2.2 1.4 2.7 3.5 3.1 2.4 2.2 2.2 1.7 1.5 1.7 1.0 0.5 0.5 1.1 1.5 1.1 1.2 1.6 2.4 2.6 2.6 2.7 2.8 2.9 2.8 2.2 2.0 1.7 2.0 2.9
6.6 5.7 6.5 6.5 6.5 6.3 4.7 3.5 2.2 1.6 0.4 0.3 0.9 1.7 2.0 1.5 2.4 1.7 1.7 1.2 0.7 0.7 0.4 0.6 0.4 0.7 1.0 1.4 1.8 2.2 2.3 2.6 2.8 2.8 2.5 2.2 2.1 2.1 1.9 2.0 2.5 2.8 3.0 4.0
6.0 6.0 6.5 6.5 6.4 6.0 5.3 3.4 0.9 0.4 0.4 1.2 2.0 1.9 1.4 1.2 1.5 0.6 0.2 0.2 0.2 0.1 0.1 0.1 0.1 0.6 1.3 1.8 2.6 3.0 3.0 3.0 3.3 3.0 2.9 2.7 3.0 2.7 2.9 3.3 3.7 4.4 4.2 4.9
5.0 6.4 6.4 6.5 3.7 3.5 2.6 0.9 1.7 0.9 0.8 1.5 1.0 1.6 1.0 0.5 -0.3 0.1 -0.4 -0.6 -0.1 0.1 0.3 0.7 1.3 1.6 2.1 2.6 3.0 2.9 2.7 2.7 2.7 2.9 3.0 3.0 3.0 3.2 3.6 4.1 4.1 3.3 2.7 2.6
Wind_Speed
4 5 3 4 6 5 2 4 6 4 6 5 9 3 8 11 11 12 12 13 14 16 17 8 10 10 9 9 9 10 10 7 6 2 2 2 4 3 3 8 12 11 11 11
5 3 4 3 4 2 3 4 6 3 5 9 4 4 6 13 19 16 13 11 15 14 7 7 9 9 11 11 11 10 10 8 8 4 3 3 3 3 2 4 9 12 10 10
4 4 2 1 2 1 3 4 3 2 5 3 4 4 5 8 9 10 9 9 9 14 12 8 11 13 10 10 12 11 11 10 8 8 2 1 1 1 1 3 3 4 9 9
5 2 2 3 2 5 4 3 3 10 6 5 3 5 6 8 13 13 15 10 12 9 8 9 10 10 12 15 9 9 9 9 9 9 6 6 3 3 3 2 2 2 7 7
6 4 2 3 3 5 6 2 1 6 4 5 3 3 7 2 9 18 15 14 11 11 12 11 13 13 12 8 10 9 9 8 8 10 8 6 4 3 1 2 4 2 3 6
4 2 4 6 2 6 2 4 6 5 3 1 3 4 8 4 8 10 7 11 9 9 9 8 7 6 7 6 6 9 10 10 9 10 9 10 9 5 3 4 4 2 3 3
5 4 4 3 2 3 4 6 3 4 4 5 2 4 9 5 8 5 8 11 11 9 7 6 7 5 4 1 6 5 9 10 11 10 10 10 9 6 7 7 4 3 3 3
4 2 4 2 6 5 2 5 5 5 3 4 5 5 5 6 8 9 8 10 7 7 8 10 5 6 7 5 7 6 7 9 6 2 4 4 7 6 7 6 5 4 4 4
5 5 3 3 1 6 4 2 4 7 3 3 2 4 8 4 8 6 3 5 7 11 10 7 8 7 6 4 6 5 8 7 12 11 7 9 8 7 8 7 4 5 5 4
6 0 2 3 3 5 3 6 3 2 3 3 4 3 5 5 7 8 3 4 7 9 10 12 8 6 4 6 7 10 13 14 8 8 5 5 7 13 20 5 5 6 5 3
5 3 5 3 2 1 3 1 6 5 4 5 2 5 6 7 7 5 3 1 5 8 9 9 7 5 6 12 7 7 10 12 9 9 6 6 6 11 20 15 7 5 3 3
7 5 2 5 3 4 3 3 4 5 4 1 4 5 1 4 4 2 6 4 6 9 12 8 8 10 9 7 5 2 5 5 7 7 5 7 9 12 18 17 9 4 3 3
8 1 2 8 6 3 1 2 5 5 3 5 5 6 4 4 4 4 5 6 4 9 8 7 5 7 9 8 7 4 1 2 2 3 9 11 8 4 11 17 9 5 5 4
9 4 7 8 7 4 4 5 5 5 4 5 6 5 5 5 4 6 6 5 4 4 3 6 4 3 3 3 2 5 4 2 2 2 8 8 8 1 13 15 9 5 5 6
6 6 4 2 2 4 3 4 5 5 4 5 5 8 5 10 10 8 6 2 4 3 1 5 4 2 4 4 4 5 5 5 4 4 2 5 4 6 8 9 7 4 5 4
3 2 4 2 2 3 0 1 4 4 2 4 2 4 3 5 6 5 7 5 3 2 6 4 4 5 4 3 3 4 7 7 5 4 4 5 4 1 5 5 4 3 3 3
5 6 3 2 4 4 3 4 6 3 4 6 4 4 5 4 8 7 7 7 5 5 3 3 4 5 5 7 8 9 9 10 11 10 8 8 6 6 6 7 7 7 6 5
6 5 3 3 2 1 6 4 5 4 1 5 2 6 5 5 3 5 4 4 4 5 7 7 6 6 8 10 11 10 11 10 9 9 9 8 6 6 5 5 5 4 3 4
4 5 4 5 3 4 3 3 2 2 4 4 2 6 7 8 5 5 2 5 5 7 7 8 8 9 10 11 9 11 9 7 6 7 6 5 6 6 7 8 8 7 7 7
6 7 5 2 5 6 7 2 3 5 4 5 6 7 9 7 4 3 6 9 10 9 8 10 11 9 9 6 6 9 7 7 8 8 8 7 8 8 8 7 8 6 6 7
3 3 5 3 2 5 5 4 5 4 7 3 6 6 6 4 1 8 13 11 10 9 10 9 9 7 5 4 6 9 8 9 6 6 6 7 6 6 6 6 4 7 8 8
5 5 3 3 3 5 2 4 7 6 1 4 4 5 9 12 11 11 13 12 12 11 9 7 7 6 5 5 6 7 7 4 5 5 5 5 6 6 6 7 6 7 7 8
1 4 5 7 6 3 3 3 2 5 5 6 7 10 16 14 11 10 9 9 8 9 8 6 8 7 4 4 5 6 3 4 3 3 3 3 1 3 4 4 6 6 6 6
1 2 4 3 2 3 2 2 1 3 3 6 11 15 15 15 11 12 10 8 6 5 5 5 7 7 5 4 4 4 3 3 3 2 2 2 3 5 4 5 5 6 6 7
4 4 5 2 3 1 3 1 4 7 11 13 10 10 14 16 10 9 7 6 5 5 4 3 5 4 4 3 3 4 5 5 3 2 1 3 3 3 4 4 5 6 8 8
4 6 4 5 8 6 5 8 8 12 12 11 17 9 6 9 11 9 7 5 4 5 3 3 3 3 2 2 2 2 2 1 1 3 3 3 4 4 4 5 7 6 10 15
Wind_Direction
5 68 219 229 181 163 198 191 195 228 200 163 220 128 200 187 206 199 200 207 215 219 224 194 194 177 172 172 170 184 182 177 167 146 179 222 225 223 218 204 222 229 235 237
18 214 211 232 159 167 198 182 222 242 191 178 148 207 210 197 212 208 202 204 214 228 207 180 171 172 186 183 182 183 190 174 186 184 179 187 186 228 223 204 211 220 231 244
169 237 183 239 11 98 197 205 179 179 139 27 89 304 195 227 222 226 228 217 220 211 205 185 180 188 178 184 192 184 184 185 182 190 152 139 355 330 284 230 251 225 220 237
219 271 302 14 270 156 303 178 127 132 130 200 144 265 249 211 214 220 228 216 213 201 201 192 188 190 191 205 181 173 172 178 189 172 189 193 197 219 232 259 232 217 223 239
231 158 72 321 224 176 232 85 116 160 108 98 305 83 268 223 224 228 219 220 211 193 190 192 197 195 208 181 180 174 164 177 194 187 187 208 223 237 257 286 284 236 231 221
201 252 223 213 159 190 202 111 60 59 84 30 229 138 288 198 247 257 212 216 205 179 183 186 196 184 183 178 187 169 169 192 192 187 186 199 214 217 242 262 277 260 250 236
345 267 275 194 359 16 79 61 354 5 15 221 61 125 242 275 275 267 224 204 207 160 160 136 105 143 84 225 196 192 184 206 195 189 193 205 216 200 214 234 237 263 266 241
144 303 185 164 176 199 92 160 154 203 198 256 109 225 255 246 292 299 248 200 181 149 78 84 77 75 100 149 194 210 182 217 215 180 310 272 216 207 222 221 225 223 232 256
141 273 305 229 129 128 194 181 178 103 13 53 246 290 311 315 315 329 237 189 81 80 87 88 67 67 76 73 54 143 166 115 92 91 62 35 339 265 235 225 208 218 212 234
194 267 278 265 95 63 169 153 79 14 144 241 305 284 242 283 270 278 320 42 71 92 94 100 83 67 59 95 90 81 94 111 121 119 127 86 29 18 333 233 200 234 233 193
132 127 276 33 63 125 322 44 52 113 111 161 196 262 212 239 233 261 327 296 72 85 106 116 115 82 71 114 117 120 106 129 169 164 207 182 101 8 350 289 264 244 187 207
194 140 203 216 283 164 219 167 119 118 224 99 154 272 251 279 276 254 268 305 59 76 115 123 138 118 110 141 132 97 88 146 195 211 221 37 61 61 323 295 263 205 168 189
181 223 32 350 357 12 352 81 91 101 89 186 141 256 356 9 340 294 309 307 40 87 120 126 136 147 153 163 158 107 38 231 242 109 96 81 75 29 236 282 267 166 163 142
98 125 158 195 203 144 188 175 150 130 122 172 221 256 257 239 232 275 282 295 23 33 100 114 151 191 203 271 234 168 172 224 294 281 65 84 68 180 250 263 244 172 167 164
127 160 153 302 188 138 203 197 164 173 180 169 236 199 281 201 206 225 230 251 305 348 210 136 134 133 332 305 205 204 173 157 181 65 40 90 119 178 229 240 232 203 192 193
13 154 112 149 265 119 68 220 172 218 137 297 263 237 321 131 126 182 210 169 225 259 239 152 158 88 36 51 110 92 91 114 137 97 29 358 25 258 251 271 294 305 311 318
102 128 94 220 5 45 1 221 205 196 175 157 178 215 174 148 190 196 182 179 183 209 199 47 17 37 54 37 56 47 45 50 52 59 54 48 38 30 11 8 13 2 349 338
121 95 87 159 38 144 239 297 213 144 301 201 274 141 166 167 110 143 184 187 169 100 82 53 52 62 63 77 78 75 60 58 59 49 43 35 26 28 20 25 18 357 355 349
86 116 82 129 168 272 142 178 160 162 251 198 179 115 122 125 103 37 70 55 87 92 81 86 80 71 71 66 78 87 72 77 74 70 55 42 38 27 25 19 5 1 356 346
56 71 102 139 148 186 221 189 122 118 294 196 152 168 152 156 122 205 115 104 95 91 90 84 75 73 74 73 85 88 87 76 56 39 34 31 27 24 15 359 346 337 339 322
70 42 129 121 184 289 244 176 149 94 240 160 142 142 145 124 91 121 111 98 94 90 80 73 76 86 86 75 78 74 70 62 57 50 47 39 27 12 359 343 328 332 329 320
150 132 138 103 110 254 166 119 151 206 250 150 115 120 108 118 110 111 115 118 118 114 108 103 95 79 55 59 86 94 89 81 69 60 50 34 16 4 345 330 320 313 302 296
287 176 171 173 204 227 272 257 324 157 162 168 123 129 128 125 127 124 118 113 116 121 124 125 122 115 106 113 117 108 124 104 118 102 83 63 312 259 251 256 274 290 292 284
268 155 104 96 274 300 349 323 147 147 137 115 126 136 136 131 130 119 119 121 115 112 114 126 127 129 131 141 126 116 132 144 138 122 27 348 310 313 316 312 303 299 294 293
212 118 131 315 297 315 288 207 140 103 109 110 99 117 126 123 122 125 125 123 124 121 118 117 119 120 118 124 139 160 164 164 159 182 234 271 268 277 286 272 280 303 301 291
183 168 151 219 203 166 218 155 144 138 136 133 125 112 80 124 129 133 132 133 127 126 126 124 137 139 171 220 246 235 210 184 277 302 294 288 292 291 301 314 324 313 303 302